FW5274 Weather Reports


Display with metric or nautical units.
time (UTC)temp
F
wind
direction
speed
MPH
gust
MPH
rain 1hr
in
rain 24hr
in
rain mn
in
humidity
%
barometer
mb
20260504174542 77 47 4.0 8.0 0.00 0.00 0.00 39 1013.7
20260504173035 76 28 4.0 9.0 0.00 0.00 0.00 39 1013.6
20260504171535 75 21 2.0 7.0 0.00 0.00 0.00 39 1013.6
20260504170108 75 4 1.0 5.0 0.00 0.00 0.00 40 1013.6
20260504090107 61 238 5.0 9.0 0.00 0.00 0.00 45 1013.5
20260504081530 62 253 4.0 7.0 0.00 0.00 0.00 44 1013.8
20260504044535 64 247 4.0 4.0 0.00 0.00 0.00 43 1013.7
20260504043108 65 237 3.0 5.0 0.00 0.00 0.00 43 1013.6
20260504040037 65 45 0.0 0.0 0.00 0.00 0.00 41 1013.3
20260504034607 66 45 0.0 0.0 0.00 0.00 0.00 41 1013.2
20260504033034 66 45 0.0 3.0 0.00 0.00 0.00 40 1013.1
20260504031535 68 45 2.0 2.0 0.00 0.00 0.00 39 1013.1
20260504030035 69 37 3.0 4.0 0.00 0.00 0.00 38 1013.0
20260504024535 72 22 3.0 4.0 0.00 0.00 0.00 37 1013.0
20260504023137 74 22 3.0 4.0 0.00 0.00 0.00 35 1013.1
20260504013029 80 52 4.0 6.0 0.00 0.00 0.00 28 1013.4
20260504011606 81 43 3.0 7.0 0.00 0.00 0.00 27 1013.6
20260504010106 81 49 4.0 8.0 0.00 0.00 0.00 27 1013.8
20260504004634 0 0 0.0 0.0 0.00 0.00 0.00 100
20260504001607 82 70 4.0 10.0 0.00 0.00 0.00 25 1014.1
20260503224532 81 50 6.0 13.0 0.00 0.00 0.00 26 1015.2
20260503223034 81 39 5.0 10.0 0.00 0.00 0.00 27 1015.5
20260503221534 81 51 6.0 13.0 0.00 0.00 0.00 28 1015.6
20260503220034 80 44 6.0 12.0 0.00 0.00 0.00 28 1015.8
20260503214606 80 60 6.0 18.0 0.00 0.00 0.00 29 1016.0
20260503213029 80 58 8.0 15.0 0.00 0.00 0.00 29 1016.1
20260503211534 80 59 8.0 15.0 0.00 0.00 0.00 30 1016.3
20260503204531 80 65 7.0 12.0 0.00 0.00 0.00 30 1016.7
20260503201531 80 56 6.0 13.0 0.00 0.00 0.00 31 1016.9
20260503200035 80 72 5.0 11.0 0.00 0.00 0.00 31 1017.2
20260503194534 79 40 3.0 10.0 0.00 0.00 0.00 31 1017.4
20260503193152 79 42 6.0 12.0 0.00 0.00 0.00 33 1017.5
20260503191608 78 34 5.0 10.0 0.00 0.00 0.00 34 1017.7
20260503190034 78 46 4.0 10.0 0.00 0.00 0.00 33 1017.8
20260503184609 78 76 2.0 10.0 0.00 0.00 0.00 33 1017.8
20260503183034 77 107 3.0 9.0 0.00 0.00 0.00 33 1017.9